Location: Andershausen
(51.8462°N, 9.8595°E)
Time: 04:42:57
(UTC+00:00)

Cosmos 2251 Rocket - Visible Passes

Search period start: 13 February 2026 00:00
Search period end: 23 February 2026 00:00
Orbit: 762 x 787 km, 74.0° (Epoch: 11 February)

Date Brightness Start Highest point End Pass type
(mag) Time Alt. Az. Time Alt. Az. Time Alt. Az.
13 Feb 6.1 02:22:52 14° NNE 02:22:52 14° NNE 02:23:35 10° NNE visible
13 Feb 5.8 04:03:15 11° NNW 04:03:15 11° NNW 04:04:17 10° N visible
14 Feb 6.4 01:48:14 11° NNE 01:48:14 11° NNE 01:48:27 10° NNE visible
14 Feb 5.8 03:28:36 13° NNW 03:28:36 13° NNW 03:29:41 10° N visible
15 Feb 5.9 02:53:57 13° N 02:53:57 13° N 02:54:50 10° N visible
16 Feb 6.1 02:19:17 13° N 02:19:17 13° N 02:19:51 10° N visible
17 Feb 6.4 01:44:36 11° NNE 01:44:36 11° NNE 01:44:48 10° NNE visible
17 Feb 6.0 03:24:58 10° NNW 03:24:58 10° NNW 03:25:15 10° NNW visible
18 Feb 6.0 02:50:17 11° N 02:50:17 11° N 02:50:48 10° N visible
19 Feb 6.2 02:15:34 11° N 02:15:34 11° N 02:15:59 10° N visible
20 Feb 6.4 01:40:51 11° N 01:40:51 11° N 01:41:02 10° N visible
22 Feb 6.2 02:11:46 10° N 02:11:46 10° N 02:11:54 10° N visible
